Location: Newark
(25.6108°S, 54.5803°W)
Time: 13:39:06
(UTC+00:00)

Courier 1B Rocket - Pass Details

Date: 03 November 2020
Orbit: 920 x 1202 km, 28.2° (Epoch: 01 December)

Event Time Altitude Azimuth Distance (km) Brightness Sun altitude
Rises 07:10:20 0° 291° (WNW) 4,091 - -21.0°
Reaches altitude 10° 07:13:13 10° 293° (WNW) 3,117 - -20.5°
Exits shadow 07:16:55 31° 297° (WNW) 1,933 6.0 -19.7°
Maximum altitude 07:20:59 77° 17° (NNE) 1,186 5.3 -18.9°
Drops below altitude 10° 07:28:23 10° 102° (ESE) 2,968 8.7 -17.5°
Sets 07:31:04 0° 103° (ESE) 3,886 9.7 -16.9°
